Location: Dompnac
(44.5644°N, 4.1026°E)
Time: 13:37:35
(UTC+00:00)

Cosmos 2026 Rocket - Pass Details

Date: 18 January 2021
Orbit: 940 x 1000 km, 82.9° (Epoch: 28 February)

Event Time Altitude Azimuth Distance (km) Brightness Sun altitude
Rises 05:12:40 0° 360° (N) 3,698 6.9 -21.4°
Reaches altitude 10° 05:15:33 10° 11° (N) 2,754 6.4 -20.9°
Maximum altitude 05:21:01 30° 71° (ENE) 1,707 5.9 -20.0°
Drops below altitude 10° 05:26:29 10° 131° (SE) 2,762 7.2 -19.0°
Sets 05:29:22 0° 141° (SE) 3,710 7.8 -18.5°
